contact:dominique.lefevre@mio.osupytheas.fr, maurice.libes@osupytheas.fr, didier.mallarino@osupytheas.fr
Project:EMSO http://www.emso-fr.org/EMSO-France
Depth: 2436.0 m
Title:EMSO Ligure Ouest : Data MII capteur CSTAR
DateTime,Latitude,Longitude,Instrument_Serial,Reference_Counts,Signal_Counts,Corrected_Signal_raw_counts,Calculated_Beam_c_inverse_meters,Internal_thermistor_counts
DateTime,Latitude,Longitude,Instrument_Serial,Reference_Counts,Signal_Counts,Corrected_Signal_raw_counts,Calculated_Beam_c_inverse_meters,Internal_thermistor_counts
2022-08-29T00:01:36,42.805,6.029,CST-1368DR,4595,5147,11925,01.079,550
2022-08-29T00:04:37,42.805,6.029,CST-1368DR,4595,5145,11921,01.080,551
2022-08-29T00:07:39,42.805,6.029,CST-1368DR,4595,5145,11920,01.080,551
2022-08-29T00:10:40,42.805,6.029,CST-1368DR,4595,5145,11922,01.080,551
2022-08-29T00:13:42,42.805,6.029,CST-1368DR,4595,5146,11922,01.080,551
2022-08-29T00:16:44,42.805,6.029,CST-1368DR,4595,5145,11920,01.080,551
2022-08-29T00:19:45,42.805,6.029,CST-1368DR,4595,5145,11920,01.080,551
2022-08-29T00:22:47,42.805,6.029,CST-1368DR,4595,5147,11926,01.078,551
2022-08-29T00:25:48,42.805,6.029,CST-1368DR,4595,5147,11925,01.079,551
2022-08-29T00:28:50,42.805,6.029,CST-1368DR,4595,5146,11923,01.079,551
2022-08-29T00:31:51,42.805,6.029,CST-1368DR,4595,5145,11920,01.080,551
2022-08-29T00:34:53,42.805,6.029,CST-1368DR,4595,5145,11921,01.080,551
2022-08-29T00:37:55,42.805,6.029,CST-1368DR,4595,5145,11922,01.080,551
2022-08-29T00:40:56,42.805,6.029,CST-1368DR,4595,5144,11919,01.081,551
2022-08-29T00:43:58,42.805,6.029,CST-1368DR,4595,5144,11919,01.081,551
2022-08-29T00:46:59,42.805,6.029,CST-1368DR,4595,5147,11926,01.078,551
2022-08-29T00:50:01,42.805,6.029,CST-1368DR,4595,5145,11920,01.080,551
2022-08-29T00:53:03,42.805,6.029,CST-1368DR,4595,5146,11922,01.080,551
2022-08-29T00:56:04,42.805,6.029,CST-1368DR,4595,5145,11921,01.080,551
2022-08-29T00:59:06,42.805,6.029,CST-1368DR,4595,5155,11944,01.072,551
2022-08-29T01:02:07,42.805,6.029,CST-1368DR,4595,5145,11920,01.080,551
2022-08-29T01:05:09,42.805,6.029,CST-1368DR,4595,5144,11919,01.081,551
2022-08-29T01:08:10,42.805,6.029,CST-1368DR,4595,5146,11923,01.079,551
2022-08-29T01:11:12,42.805,6.029,CST-1368DR,4595,5146,11923,01.079,551
2022-08-29T01:14:14,42.805,6.029,CST-1368DR,4595,5144,11919,01.081,551
2022-08-29T01:17:15,42.805,6.029,CST-1368DR,4595,5145,11921,01.080,551
2022-08-29T01:20:17,42.805,6.029,CST-1368DR,4595,5147,11925,01.079,551
2022-08-29T01:23:18,42.805,6.029,CST-1368DR,4595,5146,11923,01.079,551
2022-08-29T01:26:20,42.805,6.029,CST-1368DR,4595,5146,11923,01.079,551
2022-08-29T01:29:22,42.805,6.029,CST-1368DR,4595,5147,11926,01.078,551
2022-08-29T01:32:23,42.805,6.029,CST-1368DR,4595,5145,11920,01.080,551
2022-08-29T01:35:25,42.805,6.029,CST-1368DR,4595,5146,11922,01.080,551
2022-08-29T01:38:26,42.805,6.029,CST-1368DR,4595,5146,11922,01.080,551
2022-08-29T01:41:28,42.805,6.029,CST-1368DR,4595,5146,11923,01.079,551
2022-08-29T01:44:29,42.805,6.029,CST-1368DR,4595,5144,11919,01.081,551
2022-08-29T01:47:31,42.805,6.029,CST-1368DR,4595,5145,11921,01.080,551
2022-08-29T01:50:33,42.805,6.029,CST-1368DR,4595,5145,11920,01.080,551
2022-08-29T01:53:34,42.805,6.029,CST-1368DR,4595,5144,11918,01.081,551
2022-08-29T01:56:36,42.805,6.029,CST-1368DR,4595,5146,11923,01.079,551
2022-08-29T01:59:37,42.805,6.029,CST-1368DR,4595,5144,11918,01.081,551
2022-08-29T02:02:39,42.805,6.029,CST-1368DR,4595,5144,11918,01.081,551
2022-08-29T02:05:40,42.805,6.029,CST-1368DR,4595,5144,11918,01.081,551
2022-08-29T02:08:42,42.805,6.029,CST-1368DR,4595,5143,11917,01.081,551
2022-08-29T02:11:44,42.805,6.029,CST-1368DR,4595,5144,11919,01.081,551
2022-08-29T02:14:45,42.805,6.029,CST-1368DR,4595,5144,11918,01.081,551
2022-08-29T02:17:47,42.805,6.029,CST-1368DR,4595,5144,11918,01.081,551
2022-08-29T02:20:48,42.805,6.029,CST-1368DR,4595,5147,11925,01.079,551
2022-08-29T02:23:50,42.805,6.029,CST-1368DR,4595,5144,11918,01.081,551
2022-08-29T02:26:52,42.805,6.029,CST-1368DR,4595,5142,11915,01.082,551
2022-08-29T02:29:53,42.805,6.029,CST-1368DR,4595,5145,11921,01.080,551
2022-08-29T02:32:55,42.805,6.029,CST-1368DR,4595,5146,11923,01.079,551
2022-08-29T02:35:56,42.805,6.029,CST-1368DR,4595,5147,11925,01.079,551
2022-08-29T02:38:58,42.805,6.029,CST-1368DR,4595,5145,11922,01.080,551
2022-08-29T02:41:59,42.805,6.029,CST-1368DR,4595,5145,11921,01.080,551
2022-08-29T02:45:01,42.805,6.029,CST-1368DR,4595,5146,11923,01.079,551
2022-08-29T02:48:03,42.805,6.029,CST-1368DR,4595,5144,11919,01.081,551
2022-08-29T02:51:04,42.805,6.029,CST-1368DR,4595,5146,11923,01.079,551
2022-08-29T02:54:06,42.805,6.029,CST-1368DR,4595,5145,11920,01.080,551
2022-08-29T02:57:07,42.805,6.029,CST-1368DR,4595,5145,11921,01.080,551
2022-08-29T03:00:09,42.805,6.029,CST-1368DR,4595,5144,11919,01.081,551
2022-08-29T03:03:11,42.805,6.029,CST-1368DR,4595,5144,11919,01.081,551
2022-08-29T03:06:12,42.805,6.029,CST-1368DR,4595,5145,11921,01.080,551
2022-08-29T03:09:14,42.805,6.029,CST-1368DR,4595,5144,11918,01.081,551
2022-08-29T03:12:15,42.805,6.029,CST-1368DR,4595,5144,11918,01.081,551
2022-08-29T03:15:17,42.805,6.029,CST-1368DR,4595,5145,11920,01.080,551
2022-08-29T03:18:18,42.805,6.029,CST-1368DR,4595,5148,11927,01.078,551
2022-08-29T03:21:20,42.805,6.029,CST-1368DR,4595,5146,11923,01.079,551
2022-08-29T03:24:22,42.805,6.029,CST-1368DR,4595,5146,11922,01.080,551
2022-08-29T03:27:23,42.805,6.029,CST-1368DR,4595,5144,11919,01.081,551
2022-08-29T03:30:25,42.805,6.029,CST-1368DR,4595,5145,11920,01.080,551
2022-08-29T03:33:26,42.805,6.029,CST-1368DR,4595,5145,11922,01.080,551
2022-08-29T03:36:28,42.805,6.029,CST-1368DR,4595,5147,11925,01.079,551
2022-08-29T03:39:29,42.805,6.029,CST-1368DR,4595,5146,11923,01.079,551
2022-08-29T03:42:31,42.805,6.029,CST-1368DR,4595,5145,11920,01.080,551
2022-08-29T03:45:33,42.805,6.029,CST-1368DR,4595,5146,11923,01.079,551
2022-08-29T03:48:34,42.805,6.029,CST-1368DR,4595,5145,11920,01.080,551
2022-08-29T03:51:36,42.805,6.029,CST-1368DR,4595,5145,11922,01.080,551
2022-08-29T03:54:37,42.805,6.029,CST-1368DR,4595,5146,11923,01.079,551
2022-08-29T03:57:39,42.805,6.029,CST-1368DR,4595,5146,11923,01.079,551
2022-08-29T04:00:41,42.805,6.029,CST-1368DR,4595,5142,11915,01.082,551
2022-08-29T04:03:42,42.805,6.029,CST-1368DR,4595,5145,11921,01.080,551
2022-08-29T04:06:44,42.805,6.029,CST-1368DR,4595,5144,11918,01.081,551
2022-08-29T04:09:45,42.805,6.029,CST-1368DR,4595,5143,11916,01.082,551
2022-08-29T04:12:47,42.805,6.029,CST-1368DR,4595,5146,11923,01.079,551
2022-08-29T04:15:48,42.805,6.029,CST-1368DR,4595,5146,11922,01.080,551
2022-08-29T04:18:50,42.805,6.029,CST-1368DR,4595,5144,11919,01.081,551
2022-08-29T04:21:52,42.805,6.029,CST-1368DR,4595,5145,11921,01.080,551
2022-08-29T04:24:53,42.805,6.029,CST-1368DR,4595,5144,11918,01.081,551
2022-08-29T04:27:55,42.805,6.029,CST-1368DR,4595,5146,11923,01.079,551
2022-08-29T04:30:56,42.805,6.029,CST-1368DR,4595,5146,11922,01.080,551
2022-08-29T04:33:58,42.805,6.029,CST-1368DR,4595,5146,11923,01.079,551
2022-08-29T04:36:59,42.805,6.029,CST-1368DR,4594,5144,11922,01.080,551
2022-08-29T04:40:01,42.805,6.029,CST-1368DR,4594,5146,11925,01.079,551
2022-08-29T04:43:03,42.805,6.029,CST-1368DR,4594,5145,11924,01.079,551
2022-08-29T04:46:04,42.805,6.029,CST-1368DR,4595,5147,11925,01.079,551
2022-08-29T04:49:06,42.805,6.029,CST-1368DR,4595,5147,11925,01.079,551
2022-08-29T04:52:07,42.805,6.029,CST-1368DR,4595,5146,11922,01.080,551
2022-08-29T04:55:09,42.805,6.029,CST-1368DR,4595,5146,11923,01.079,551
2022-08-29T04:58:11,42.805,6.029,CST-1368DR,4595,5146,11922,01.080,551
2022-08-29T05:01:12,42.805,6.029,CST-1368DR,4594,5145,11924,01.079,551
2022-08-29T05:04:14,42.805,6.029,CST-1368DR,4594,5139,11908,01.084,551
2022-08-29T05:07:15,42.805,6.029,CST-1368DR,4594,5143,11919,01.081,551
2022-08-29T05:10:17,42.805,6.029,CST-1368DR,4595,5143,11917,01.081,551
2022-08-29T05:13:18,42.805,6.029,CST-1368DR,4595,5145,11920,01.080,551
2022-08-29T05:16:20,42.805,6.029,CST-1368DR,4594,5149,11933,01.076,551
2022-08-29T05:19:22,42.805,6.029,CST-1368DR,4594,5144,11920,01.080,551
2022-08-29T05:22:23,42.805,6.029,CST-1368DR,4594,5143,11919,01.081,551
2022-08-29T05:25:25,42.805,6.029,CST-1368DR,4595,5144,11919,01.081,551
2022-08-29T05:28:26,42.805,6.029,CST-1368DR,4594,5143,11919,01.081,551
2022-08-29T05:31:28,42.805,6.029,CST-1368DR,4594,5143,11919,01.081,551
2022-08-29T05:34:30,42.805,6.029,CST-1368DR,4595,5145,11922,01.080,551
2022-08-29T05:37:31,42.805,6.029,CST-1368DR,4595,5146,11923,01.079,551
2022-08-29T05:40:33,42.805,6.029,CST-1368DR,4595,5146,11923,01.079,551
2022-08-29T05:43:34,42.805,6.029,CST-1368DR,4594,5144,11921,01.080,551
2022-08-29T05:46:36,42.805,6.029,CST-1368DR,4594,5145,11924,01.079,551
2022-08-29T05:49:37,42.805,6.029,CST-1368DR,4594,5144,11921,01.080,551
2022-08-29T05:52:39,42.805,6.029,CST-1368DR,4594,5147,11927,01.078,551
2022-08-29T05:55:41,42.805,6.029,CST-1368DR,4594,5146,11925,01.079,551
2022-08-29T05:58:42,42.805,6.029,CST-1368DR,4595,5147,11925,01.079,551
2022-08-29T06:01:44,42.805,6.029,CST-1368DR,4595,5145,11920,01.080,551
2022-08-29T06:04:45,42.805,6.029,CST-1368DR,4594,5145,11922,01.080,551
2022-08-29T06:07:47,42.805,6.029,CST-1368DR,4594,5145,11924,01.079,551
2022-08-29T06:10:48,42.805,6.029,CST-1368DR,4594,5144,11922,01.080,551
2022-08-29T06:13:50,42.805,6.029,CST-1368DR,4594,5145,11922,01.080,551
2022-08-29T06:16:52,42.805,6.029,CST-1368DR,4594,5146,11925,01.079,551
2022-08-29T06:19:53,42.805,6.029,CST-1368DR,4594,5144,11921,01.080,551
2022-08-29T06:22:55,42.805,6.029,CST-1368DR,4595,5145,11922,01.080,551
2022-08-29T06:25:56,42.805,6.029,CST-1368DR,4595,5137,11902,01.086,551
2022-08-29T06:28:58,42.805,6.029,CST-1368DR,4595,5144,11919,01.081,551
2022-08-29T06:32:00,42.805,6.029,CST-1368DR,4594,5145,11923,01.079,551
2022-08-29T06:35:01,42.805,6.029,CST-1368DR,4595,5140,11910,01.084,551
2022-08-29T06:38:03,42.805,6.029,CST-1368DR,4594,5142,11916,01.082,551
2022-08-29T06:41:04,42.805,6.029,CST-1368DR,4594,5142,11915,01.082,551
2022-08-29T06:44:06,42.805,6.029,CST-1368DR,4594,5143,11919,01.081,551
2022-08-29T06:47:07,42.805,6.029,CST-1368DR,4594,5142,11916,01.082,551
2022-08-29T06:50:09,42.805,6.029,CST-1368DR,4594,5144,11922,01.080,551
2022-08-29T06:53:11,42.805,6.029,CST-1368DR,4594,5143,11919,01.081,551
2022-08-29T06:56:12,42.805,6.029,CST-1368DR,4594,5145,11924,01.079,551
2022-08-29T06:59:14,42.805,6.029,CST-1368DR,4594,5143,11918,01.081,551
2022-08-29T07:02:15,42.805,6.029,CST-1368DR,4595,5145,11922,01.080,551
2022-08-29T07:05:17,42.805,6.029,CST-1368DR,4594,5143,11918,01.081,551
2022-08-29T07:08:18,42.805,6.029,CST-1368DR,4594,5145,11922,01.080,551
2022-08-29T07:11:20,42.805,6.029,CST-1368DR,4595,5145,11920,01.080,551
2022-08-29T07:14:22,42.805,6.029,CST-1368DR,4594,5144,11921,01.080,551
2022-08-29T07:17:23,42.805,6.029,CST-1368DR,4594,5143,11919,01.081,551
2022-08-29T07:20:25,42.805,6.029,CST-1368DR,4594,5143,11919,01.081,551
2022-08-29T07:23:26,42.805,6.029,CST-1368DR,4594,5142,11917,01.081,551
2022-08-29T07:26:28,42.805,6.029,CST-1368DR,4594,5136,11902,01.086,551
2022-08-29T07:29:30,42.805,6.029,CST-1368DR,4594,5135,11900,01.087,551
2022-08-29T07:32:31,42.805,6.029,CST-1368DR,4594,5133,11895,01.089,551
2022-08-29T07:35:33,42.805,6.029,CST-1368DR,4594,5134,11899,01.087,551
2022-08-29T07:38:34,42.805,6.029,CST-1368DR,4594,5134,11897,01.088,551
2022-08-29T07:41:36,42.805,6.029,CST-1368DR,4594,5134,11899,01.087,551
2022-08-29T07:44:37,42.805,6.029,CST-1368DR,4594,5134,11897,01.088,551
2022-08-29T07:47:39,42.805,6.029,CST-1368DR,4594,5132,11894,01.089,551
2022-08-29T07:50:41,42.805,6.029,CST-1368DR,4594,5132,11894,01.089,551
2022-08-29T07:53:42,42.805,6.029,CST-1368DR,4594,5133,11896,01.088,551
2022-08-29T07:56:44,42.805,6.029,CST-1368DR,4594,5134,11897,01.088,551
2022-08-29T07:59:45,42.805,6.029,CST-1368DR,4594,5135,11900,01.087,551
2022-08-29T08:02:47,42.805,6.029,CST-1368DR,4594,5131,11892,01.090,551
2022-08-29T08:05:48,42.805,6.029,CST-1368DR,4594,5133,11895,01.089,551
2022-08-29T08:08:50,42.805,6.029,CST-1368DR,4594,5133,11895,01.089,551
2022-08-29T08:11:52,42.805,6.029,CST-1368DR,4594,5132,11894,01.089,551
2022-08-29T08:14:53,42.805,6.029,CST-1368DR,4594,5131,11891,01.090,551
2022-08-29T08:17:55,42.805,6.029,CST-1368DR,4594,5134,11897,01.088,551
2022-08-29T08:20:56,42.805,6.029,CST-1368DR,4594,5137,11904,01.086,551
2022-08-29T08:23:58,42.805,6.029,CST-1368DR,4594,5135,11900,01.087,551
2022-08-29T08:27:00,42.805,6.029,CST-1368DR,4594,5137,11906,01.085,551
2022-08-29T08:30:01,42.805,6.029,CST-1368DR,4594,5128,11885,01.092,551
2022-08-29T08:33:03,42.805,6.029,CST-1368DR,4594,5136,11903,01.086,551
2022-08-29T08:36:04,42.805,6.029,CST-1368DR,4594,5137,11905,01.085,551
2022-08-29T08:39:06,42.805,6.029,CST-1368DR,4594,5134,11897,01.088,551
2022-08-29T08:42:07,42.805,6.029,CST-1368DR,4594,5135,11899,01.087,551
2022-08-29T08:45:09,42.805,6.029,CST-1368DR,4594,5135,11900,01.087,551
2022-08-29T08:48:11,42.805,6.029,CST-1368DR,4594,5137,11906,01.085,551
2022-08-29T08:51:12,42.805,6.029,CST-1368DR,4594,5137,11904,01.086,551
2022-08-29T08:54:14,42.805,6.029,CST-1368DR,4594,5137,11905,01.085,551
2022-08-29T08:57:15,42.805,6.029,CST-1368DR,4594,5135,11901,01.087,551
2022-08-29T09:00:17,42.805,6.029,CST-1368DR,4594,5136,11902,01.086,551
2022-08-29T09:03:18,42.805,6.029,CST-1368DR,4594,5136,11903,01.086,551
2022-08-29T09:06:20,42.805,6.029,CST-1368DR,4594,5138,11906,01.085,551
2022-08-29T09:09:22,42.805,6.029,CST-1368DR,4594,5138,11906,01.085,551
2022-08-29T09:12:23,42.805,6.029,CST-1368DR,4594,5135,11901,01.087,551
2022-08-29T09:15:25,42.805,6.029,CST-1368DR,4594,5136,11902,01.086,551
2022-08-29T09:18:26,42.805,6.029,CST-1368DR,4594,5136,11903,01.086,551
2022-08-29T09:21:28,42.805,6.029,CST-1368DR,4594,5135,11900,01.087,551
2022-08-29T09:24:30,42.805,6.029,CST-1368DR,4594,5134,11899,01.087,551
2022-08-29T09:27:31,42.805,6.029,CST-1368DR,4594,5134,11899,01.087,551
2022-08-29T09:30:33,42.805,6.029,CST-1368DR,4594,5135,11900,01.087,551
2022-08-29T09:33:34,42.805,6.029,CST-1368DR,4594,5134,11897,01.088,551
2022-08-29T09:36:36,42.805,6.029,CST-1368DR,4594,5134,11897,01.088,551
2022-08-29T09:39:37,42.805,6.029,CST-1368DR,4594,5133,11896,01.088,551
2022-08-29T09:42:39,42.805,6.029,CST-1368DR,4594,5133,11896,01.088,551
2022-08-29T09:45:41,42.805,6.029,CST-1368DR,4594,5134,11898,01.088,551
2022-08-29T09:48:42,42.805,6.029,CST-1368DR,4594,5124,11875,01.095,551
2022-08-29T09:51:44,42.805,6.029,CST-1368DR,4594,5122,11870,01.097,551
2022-08-29T09:54:45,42.805,6.029,CST-1368DR,4594,5122,11870,01.097,551
2022-08-29T09:57:47,42.805,6.029,CST-1368DR,4594,5120,11866,01.098,551
2022-08-29T10:00:49,42.805,6.029,CST-1368DR,4594,5124,11875,01.095,551
2022-08-29T10:03:50,42.805,6.029,CST-1368DR,4594,5122,11869,01.097,551
2022-08-29T10:06:52,42.805,6.029,CST-1368DR,4594,5122,11871,01.097,551
2022-08-29T10:09:53,42.805,6.029,CST-1368DR,4594,5123,11873,01.096,551
2022-08-29T10:12:55,42.805,6.029,CST-1368DR,4594,5124,11874,01.096,551
2022-08-29T10:15:56,42.805,6.029,CST-1368DR,4594,5122,11870,01.097,551
2022-08-29T10:18:58,42.805,6.029,CST-1368DR,4594,5132,11893,01.089,551
2022-08-29T10:22:00,42.805,6.029,CST-1368DR,4594,5132,11892,01.090,551
2022-08-29T10:25:01,42.805,6.029,CST-1368DR,4594,5132,11894,01.089,551
2022-08-29T10:28:03,42.805,6.029,CST-1368DR,4594,5128,11885,01.092,551
2022-08-29T10:31:04,42.805,6.029,CST-1368DR,4594,5132,11892,01.090,551
2022-08-29T10:34:06,42.805,6.029,CST-1368DR,4594,5131,11891,01.090,551
2022-08-29T10:37:07,42.805,6.029,CST-1368DR,4594,5126,11880,01.094,551
2022-08-29T10:40:09,42.805,6.029,CST-1368DR,4594,5131,11892,01.090,551
2022-08-29T10:43:11,42.805,6.029,CST-1368DR,4594,5132,11893,01.089,551
2022-08-29T10:46:12,42.805,6.029,CST-1368DR,4594,5131,11892,01.090,551
2022-08-29T10:49:14,42.805,6.029,CST-1368DR,4594,5130,11888,01.091,551
2022-08-29T10:52:15,42.805,6.029,CST-1368DR,4594,5132,11893,01.089,551
2022-08-29T10:55:17,42.805,6.029,CST-1368DR,4594,5132,11894,01.089,551
2022-08-29T10:58:19,42.805,6.029,CST-1368DR,4594,5131,11891,01.090,551
2022-08-29T11:01:20,42.805,6.029,CST-1368DR,4594,5131,11892,01.090,551
2022-08-29T11:04:22,42.805,6.029,CST-1368DR,4594,5125,11877,01.095,551
2022-08-29T11:07:23,42.805,6.029,CST-1368DR,4594,5132,11893,01.089,551
2022-08-29T11:10:25,42.805,6.029,CST-1368DR,4594,5130,11888,01.091,551
2022-08-29T11:13:26,42.805,6.029,CST-1368DR,4594,5132,11893,01.089,551
2022-08-29T11:16:28,42.805,6.029,CST-1368DR,4594,5130,11888,01.091,551
2022-08-29T11:19:30,42.805,6.029,CST-1368DR,4594,5132,11892,01.090,551
2022-08-29T11:22:31,42.805,6.029,CST-1368DR,4594,5132,11892,01.090,551
2022-08-29T11:25:33,42.805,6.029,CST-1368DR,4594,5131,11892,01.090,551
2022-08-29T11:28:34,42.805,6.029,CST-1368DR,4594,5128,11884,01.092,551
2022-08-29T11:35:07,42.805,6.029,CST-1368DR,4591,5130,11897,01.088,553
2022-08-29T11:38:08,42.805,6.029,CST-1368DR,4593,5130,11891,01.090,551
2022-08-29T11:41:10,42.805,6.029,CST-1368DR,4594,5130,11889,01.091,551
2022-08-29T11:44:12,42.805,6.029,CST-1368DR,4594,5130,11888,01.091,551
2022-08-29T11:47:13,42.805,6.029,CST-1368DR,4594,5130,11889,01.091,551
2022-08-29T11:50:15,42.805,6.029,CST-1368DR,4594,5132,11894,01.089,551
2022-08-29T11:53:16,42.805,6.029,CST-1368DR,4594,5131,11891,01.090,551
2022-08-29T11:56:18,42.805,6.029,CST-1368DR,4594,5134,11898,01.088,551
2022-08-29T11:59:20,42.805,6.029,CST-1368DR,4594,5132,11894,01.089,551
2022-08-29T12:02:21,42.805,6.029,CST-1368DR,4594,5132,11893,01.089,551
